Wind_Speed
67 75 76 84 94 104 114 120 122 119 120 116 115 114 113 108 104 100 94 91 88 87 80 79 82 81 82 82 79 80 80 77 77 77 78 75 75 73 71 71 70 68 67 68
63 69 79 87 96 108 117 126 129 129 121 120 118 116 115 114 108 102 101 95 92 89 86 83 82 85 85 84 81 80 81 81 80 79 80 81 79 78 78 79 77 75 74 74
64 69 78 84 91 100 112 122 125 125 120 118 119 119 117 116 112 108 107 102 96 93 90 89 84 82 81 81 83 83 84 85 85 84 84 82 80 81 81 83 82 81 81 81
60 65 75 84 88 99 107 115 119 122 122 121 117 113 116 113 114 111 106 102 100 95 94 94 91 87 85 83 83 83 84 84 85 86 85 84 83 84 85 87 88 88 88 88
56 62 75 83 88 98 108 114 115 117 117 122 118 120 112 117 114 112 108 103 101 100 98 98 97 91 90 87 87 87 87 87 88 87 86 86 85 85 86 86 87 88 88 89
54 62 74 85 90 100 99 108 114 115 119 124 118 111 115 111 109 112 112 107 105 102 102 100 99 98 97 94 92 92 91 91 90 89 88 87 87 87 87 87 87 89 91 93
51 57 70 80 87 94 101 107 113 116 120 115 114 114 109 109 107 111 112 111 109 107 105 104 102 100 100 101 99 98 97 96 94 94 94 92 91 91 91 91 92 94 95 97
45 51 61 71 75 79 89 96 103 105 105 112 112 110 108 106 107 105 111 111 110 108 109 108 107 106 104 103 103 105 103 101 98 97 98 98 97 97 98 99 99 102 102 102
43 51 60 66 72 74 83 90 100 100 100 103 100 102 104 104 103 107 107 110 112 109 109 111 112 110 109 109 109 109 106 104 104 105 103 101 102 104 103 103 106 108 109 110
41 49 56 62 68 74 76 82 83 83 85 88 94 97 99 100 103 105 107 108 107 110 110 107 110 111 112 112 112 111 110 110 110 110 109 108 109 107 107 110 112 112 113 114
39 45 51 56 62 68 72 74 81 85 84 86 88 94 99 99 101 105 106 107 108 106 107 109 106 106 107 110 114 112 112 113 114 114 114 113 113 110 111 114 117 118 118 116
36 41 47 51 59 68 74 79 81 79 82 85 88 96 97 99 99 100 102 103 103 105 107 107 108 111 111 110 110 109 112 114 115 115 115 116 115 115 117 117 115 117 121 123
34 41 42 48 56 63 70 75 80 83 84 84 86 90 91 94 94 95 97 99 101 102 103 104 107 108 108 109 112 114 114 115 116 116 114 114 115 116 118 117 117 117 117 119
26 33 40 46 49 52 58 69 76 80 83 85 86 87 87 87 88 90 92 94 96 98 100 103 104 104 107 108 110 112 112 113 115 113 111 112 114 117 117 116 117 118 119 119
22 26 29 35 40 46 52 61 70 76 79 81 84 86 87 86 87 87 87 88 90 92 94 96 97 102 102 105 107 110 114 116 115 114 113 112 114 116 115 115 116 115 117 118
21 21 23 24 28 30 33 38 46 55 65 72 77 80 81 83 84 83 83 83 84 87 87 87 87 89 92 96 99 103 103 102 106 105 105 109 111 111 111 111 111 111 111 113
29 27 27 26 25 25 27 29 32 34 37 44 52 58 64 71 76 77 78 79 80 82 81 80 80 84 87 90 93 92 94 95 95 97 101 100 97 95 94 96 94 93 95 96
26 27 29 29 29 29 28 29 30 32 35 39 43 48 54 58 61 63 66 68 71 73 74 77 78 82 85 86 86 86 86 88 88 87 86 84 83 83 82 85 84 86 87 83
24 26 27 26 23 24 26 27 27 28 30 32 37 43 47 53 54 57 60 63 60 63 67 68 70 71 71 72 72 74 76 77 77 76 75 76 73 73 76 73 73 70 67 62
23 21 19 18 18 23 23 24 26 24 16 19 23 26 27 30 33 35 38 41 48 51 58 61 61 62 65 66 67 67 65 64 61 57 53 57 60 61 62 62 57 52 50 50
21 21 21 21 22 20 20 21 19 11 9 10 10 14 14 12 13 13 18 19 23 26 26 30 32 34 37 40 38 38 39 37 38 41 43 47 50 49 47 44 44 47 47 47
23 23 22 22 20 19 21 21 14 13 13 11 13 14 12 10 11 11 9 8 10 13 15 17 19 22 22 25 26 28 30 31 32 34 35 35 37 39 41 42 44 46 47 49
26 25 24 24 21 19 19 18 16 16 14 13 12 11 11 10 9 8 9 11 12 12 12 14 14 16 19 20 22 23 25 28 30 33 36 39 40 41 42 45 46 48 49 51
28 26 29 27 24 23 22 18 18 18 16 14 12 10 11 11 10 12 14 13 14 14 16 18 21 22 25 27 29 31 33 35 37 38 41 43 45 46 46 46 49 51 53 56
34 31 34 36 28 26 26 24 20 18 17 16 15 15 16 14 14 16 18 19 21 22 24 25 27 29 31 32 34 36 38 40 42 44 46 48 50 51 52 52 54 56 57 59
37 34 35 41 32 29 28 28 26 24 24 23 22 21 20 19 19 21 22 25 27 28 29 29 30 31 34 37 39 41 43 45 47 50 52 55 57 60 60 60 59 61 61 61
Wind_Direction
213 212 210 213 211 211 208 210 211 213 214 212 214 219 220 220 219 219 218 219 221 222 222 229 228 231 235 237 239 240 243 248 252 253 255 256 258 262 265 267 269 271 275 276
210 209 206 205 205 206 205 208 208 211 212 213 214 217 220 220 220 221 221 220 221 222 225 227 231 231 232 236 240 243 245 248 250 254 256 257 259 262 264 267 269 271 273 275
203 205 205 203 203 203 205 209 209 211 212 214 215 215 219 220 221 222 222 221 222 224 225 228 230 233 237 239 241 243 245 248 251 254 256 258 260 262 264 267 270 272 273 275
203 203 200 200 202 201 203 205 208 211 212 214 215 217 217 220 223 224 224 226 226 227 228 230 232 233 236 239 243 246 248 250 253 255 258 260 261 263 265 267 269 272 275 277
199 201 199 199 199 201 202 204 207 210 212 215 215 217 216 217 222 225 228 228 228 230 231 232 234 235 238 241 243 245 247 250 252 255 258 261 264 265 266 268 270 273 276 277
198 199 197 197 200 201 200 204 206 207 211 215 216 218 219 220 220 225 228 229 231 233 234 236 236 237 239 241 245 247 249 251 253 255 259 261 263 265 268 270 272 274 276 279
202 198 199 199 200 199 202 203 205 207 211 213 216 218 221 222 221 223 227 230 232 234 237 239 240 241 242 243 245 248 250 252 255 258 261 263 265 268 270 272 274 276 277 279
199 198 200 200 202 201 204 205 207 209 211 214 217 219 222 221 224 225 226 230 234 236 238 239 241 243 245 247 248 249 251 253 255 258 261 263 265 268 270 272 274 276 277 279
195 194 193 198 200 203 203 206 209 210 211 215 218 221 226 226 226 228 229 228 230 233 236 240 243 244 247 249 251 252 254 256 258 259 262 264 265 267 269 271 274 276 278 278
191 190 192 194 198 199 202 205 207 212 216 219 220 223 227 227 228 230 231 232 231 233 236 239 243 246 248 250 252 254 256 258 260 261 263 265 266 269 271 272 273 276 277 279
187 188 189 192 196 200 204 206 209 210 214 218 221 225 226 228 231 233 234 235 235 236 236 238 240 245 249 252 255 256 258 260 261 262 264 266 266 268 271 273 273 275 279 281
180 184 186 190 197 200 204 206 209 215 219 220 222 225 227 230 233 236 237 238 238 239 240 240 241 244 246 249 252 253 258 262 263 264 266 268 269 271 272 274 276 277 279 282
177 183 193 199 199 204 208 211 213 215 219 222 226 228 230 234 237 239 241 242 243 244 244 245 246 247 248 250 252 253 255 257 259 260 264 266 268 269 270 273 275 277 278 279
168 177 186 194 199 203 209 214 217 220 223 226 228 232 233 235 237 239 242 244 247 248 249 250 251 252 253 255 257 258 259 260 260 262 264 265 266 267 269 271 273 274 276 278
147 158 171 187 198 207 213 216 218 222 226 229 232 234 237 238 240 242 244 246 248 251 252 254 255 257 258 260 261 262 261 262 264 266 268 270 270 271 273 275 277 278 279 281
153 160 168 174 182 191 201 210 219 225 230 234 236 239 241 242 245 247 248 250 252 253 254 256 257 258 259 260 261 261 265 266 268 270 270 271 272 274 276 276 277 278 280 281
175 174 178 180 185 190 197 206 216 221 224 229 234 238 241 244 246 247 249 249 249 250 251 253 253 254 256 257 259 261 264 267 267 267 269 272 273 274 275 275 277 280 280 282
178 180 181 184 189 192 198 205 215 222 226 230 233 236 238 240 242 243 245 247 248 249 249 250 251 252 254 256 259 261 264 265 267 269 270 272 273 275 276 278 279 280 282 285
182 185 188 191 192 194 200 206 214 223 231 237 241 242 243 245 245 246 246 246 247 250 249 249 249 252 257 260 262 263 265 267 270 271 271 273 274 274 276 278 278 282 284 286
188 196 196 196 204 207 210 213 220 222 230 243 239 232 235 240 242 243 240 243 242 237 243 251 254 255 257 259 261 263 266 267 269 271 270 268 270 271 273 276 280 280 278 282
188 190 190 197 206 216 219 228 234 215 208 213 195 185 182 188 194 216 240 249 250 253 255 256 259 259 261 261 262 259 261 258 259 259 261 265 267 267 273 276 272 277 282 288
188 184 193 206 212 211 215 225 226 203 199 174 163 160 160 162 183 201 224 226 214 220 225 240 247 250 251 252 255 262 264 266 266 265 265 266 265 266 268 273 279 283 287 289
193 200 203 215 216 218 218 222 202 208 198 185 180 177 178 185 202 216 232 244 241 244 248 254 257 259 265 270 269 271 271 271 272 270 268 268 269 271 276 281 284 283 287 294
204 208 204 216 212 208 215 215 210 204 204 197 197 200 204 208 209 213 219 231 237 242 250 256 259 261 265 267 268 268 269 269 271 273 275 278 282 283 282 282 283 287 291 293
205 210 209 209 219 214 213 222 223 223 224 226 226 230 232 238 247 256 262 264 264 263 262 263 265 266 267 269 274 277 279 280 280 282 283 283 283 281 281 282 283 285 287 291
210 213 212 213 224 226 222 222 224 228 234 235 240 246 253 257 258 257 257 260 259 259 261 263 265 269 273 274 274 275 278 279 280 279 277 277 276 276 278 280 281 283 287 290
Height
10494 10508 10536 10559 10586 10611 10633 10646 10674 10693 10699 10720 10738 10752 10768 10782 10797 10808 10822 10832 10840 10845 10852 10856 10861 10867 10871 10873 10878 10881 10882 10884 10887 10889 10889 10892 10895 10897 10900 10899 10902 10903 10902 10901
10485 10501 10516 10532 10552 10571 10600 10620 10635 10646 10682 10702 10717 10735 10751 10764 10784 10797 10807 10818 10827 10836 10839 10844 10849 10853 10857 10862 10867 10870 10872 10874 10875 10876 10876 10880 10884 10886 10889 10886 10889 10891 10891 10889
10470 10485 10503 10523 10542 10568 10590 10609 10629 10649 10673 10688 10699 10716 10730 10753 10766 10779 10789 10803 10812 10822 10829 10833 10837 10843 10848 10852 10855 10858 10862 10863 10862 10863 10864 10869 10874 10875 10877 10876 10876 10877 10878 10877
10465 10483 10497 10517 10537 10557 10576 10595 10611 10628 10652 10669 10692 10709 10725 10743 10754 10766 10779 10792 10802 10810 10815 10820 10824 10830 10835 10842 10845 10847 10849 10849 10848 10849 10852 10857 10862 10863 10864 10864 10864 10864 10864 10862
10463 10475 10490 10511 10529 10545 10557 10580 10605 10627 10645 10648 10671 10678 10710 10722 10740 10759 10769 10780 10790 10795 10801 10806 10811 10823 10826 10830 10831 10832 10832 10834 10835 10839 10843 10846 10849 10850 10852 10852 10853 10851 10849 10845
10460 10468 10482 10498 10516 10527 10559 10569 10587 10607 10616 10633 10660 10682 10694 10712 10743 10745 10754 10766 10775 10782 10789 10792 10803 10808 10812 10815 10816 10817 10818 10820 10824 10828 10830 10833 10836 10838 10839 10840 10840 10838 10833 10830
10460 10472 10482 10496 10509 10529 10542 10558 10574 10587 10596 10637 10653 10662 10683 10704 10719 10734 10742 10750 10760 10769 10774 10780 10788 10793 10796 10799 10802 10803 10804 10808 10814 10817 10818 10822 10825 10826 10826 10826 10823 10820 10817 10815
10461 10475 10489 10504 10522 10546 10554 10568 10581 10598 10618 10626 10643 10661 10672 10692 10706 10719 10730 10739 10750 10757 10760 10766 10770 10776 10781 10783 10787 10787 10790 10798 10803 10805 10806 10809 10811 10810 10810 10810 10808 10803 10801 10799
10463 10473 10487 10504 10521 10541 10550 10563 10573 10594 10608 10622 10643 10653 10666 10682 10693 10701 10711 10722 10732 10738 10744 10750 10755 10762 10766 10768 10770 10773 10780 10785 10787 10788 10791 10795 10796 10796 10796 10794 10788 10784 10783 10781
10465 10477 10490 10503 10518 10532 10550 10560 10582 10596 10610 10624 10637 10646 10653 10665 10674 10682 10692 10702 10713 10725 10732 10736 10741 10747 10751 10754 10755 10761 10768 10768 10768 10772 10776 10779 10777 10781 10781 10775 10770 10767 10766 10762
10471 10483 10495 10510 10523 10536 10549 10563 10572 10581 10596 10608 10625 10632 10635 10649 10655 10664 10676 10687 10699 10710 10718 10723 10729 10733 10736 10736 10741 10748 10749 10748 10751 10755 10757 10755 10761 10766 10760 10755 10751 10749 10746 10741
10477 10487 10496 10507 10519 10531 10542 10551 10565 10582 10592 10598 10609 10611 10626 10634 10643 10651 10660 10672 10684 10694 10702 10710 10715 10718 10720 10721 10723 10728 10729 10731 10734 10734 10735 10739 10745 10743 10737 10734 10734 10729 10724 10718
10478 10487 10501 10511 10521 10533 10544 10554 10563 10570 10581 10594 10602 10605 10619 10629 10638 10645 10650 10660 10668 10676 10684 10691 10697 10702 10705 10704 10706 10709 10711 10712 10712 10714 10723 10724 10723 10722 10715 10715 10712 10709 10703 10695
10484 10490 10498 10507 10516 10527 10539 10550 10561 10569 10577 10584 10591 10597 10607 10616 10624 10630 10638 10645 10652 10659 10666 10672 10679 10683 10684 10688 10689 10689 10692 10691 10693 10700 10704 10705 10704 10697 10697 10697 10693 10688 10680 10675
10489 10495 10501 10509 10518 10526 10534 10544 10553 10561 10570 10577 10584 10589 10595 10603 10609 10618 10626 10633 10641 10645 10653 10657 10663 10663 10667 10667 10666 10665 10667 10670 10675 10678 10680 10680 10675 10675 10676 10673 10667 10663 10657 10652
10492 10498 10504 10510 10517 10524 10532 10540 10547 10556 10562 10570 10575 10580 10587 10592 10596 10606 10612 10621 10626 10627 10633 10640 10643 10645 10643 10643 10643 10642 10650 10650 10652 10656 10654 10652 10654 10654 10652 10648 10643 10641 10635 10629
10492 10498 10504 10510 10517 10523 10529 10535 10541 10548 10557 10561 10564 10570 10574 10577 10582 10590 10596 10601 10604 10610 10616 10621 10623 10622 10622 10622 10621 10627 10628 10632 10633 10632 10633 10636 10634 10632 10630 10626 10624 10620 10614 10611
10494 10499 10503 10508 10513 10519 10526 10532 10537 10543 10548 10552 10556 10558 10559 10563 10567 10572 10577 10581 10586 10591 10596 10599 10603 10602 10604 10606 10609 10613 10616 10615 10615 10617 10618 10617 10616 10613 10610 10606 10605 10600 10596 10594
10495 10498 10502 10506 10512 10518 10523 10527 10532 10537 10541 10543 10544 10546 10549 10550 10557 10559 10563 10566 10576 10576 10577 10582 10585 10587 10592 10596 10598 10599 10601 10601 10601 10601 10601 10599 10597 10594 10592 10590 10587 10583 10580 10577
10493 10498 10503 10507 10511 10515 10520 10524 10527 10532 10534 10534 10534 10535 10537 10540 10545 10548 10552 10554 10561 10564 10564 10569 10574 10576 10579 10581 10583 10586 10587 10586 10585 10585 10583 10582 10581 10579 10576 10574 10573 10570 10568 10564
10490 10494 10499 10504 10508 10512 10516 10520 10523 10526 10528 10528 10527 10528 10532 10535 10539 10542 10545 10549 10552 10555 10558 10561 10564 10566 10567 10569 10570 10571 10572 10572 10572 10571 10570 10569 10567 10565 10565 10564 10562 10558 10554 10551
10488 10492 10496 10500 10505 10510 10512 10515 10521 10524 10525 10525 10525 10527 10530 10533 10537 10540 10543 10545 10547 10549 10552 10555 10556 10556 10558 10559 10560 10561 10561 10561 10560 10560 10559 10559 10558 10556 10554 10552 10549 10545 10541 10540
10486 10489 10492 10497 10501 10506 10510 10514 10517 10519 10521 10523 10524 10526 10528 10531 10534 10536 10539 10541 10542 10544 10546 10548 10549 10551 10552 10552 10553 10553 10553 10552 10552 10551 10550 10548 10546 10543 10541 10538 10536 10533 10530 10526
10483 10486 10490 10494 10498 10503 10506 10510 10513 10516 10518 10519 10522 10524 10526 10529 10531 10534 10536 10538 10539 10540 10542 10543 10544 10544 10545 10545 10545 10544 10543 10543 10541 10540 10537 10535 10533 10530 10528 10527 10524 10520 10518 10514
10478 10481 10486 10490 10495 10499 10503 10506 10509 10511 10514 10516 10518 10521 10523 10525 10526 10528 10530 10531 10533 10534 10535 10536 10536 10536 10536 10535 10535 10534 10532 10531 10529 10526 10524 10522 10519 10517 10516 10514 10511 10508 10504 10501
10471 10478 10482 10487 10491 10495 10500 10502 10505 10507 10510 10511 10513 10515 10517 10519 10521 10523 10524 10525 10526 10527 10527 10527 10527 10526 10526 10525 10524 10522 10521 10519 10516 10514 10511 10508 10505 10503 10501 10500 10499 10495 10491 10488